BREEZE-M DEB, 38642

Orbit data source: Space-Track

BREEZE-M DEB, 38642 is space debris in HEO originally from a launch on Fri, 14 Mar 2008 UTC launched from the Tyuratam Missile And Space Complex (TTMTR). Debris objects in space refer to the collection of defunct objects orbiting the Earth. Examples of debris include non-operational satellites, rocket bodies, and fragments generated from explosions, collisions, or faulty payload assembly.

Loading next visibility...
Identifier
38642, 2008-011CR
Orbit
HEO
Country
Flag of CISCIS
Related business
Manufacturer
Unknown
Mission
Spacecraft
Bus & Motor
Unknown
Mass
Unknown
Launch date (UTC)
2008-03-14 (18 years ago)
Launch vehicle
Unknown
Launch site
Tyuratam Missile And Space Complex (TTMTR)
Object type
Payload
Rocket body
Debris
Shape & HBR
Unknown shape, 0.1 m
Radar Cross Section
Medium (>0.1 m² and <1 m²)

Expand to show TLE details & history
Last TLE update: 6 months ago

TLE from 6 months ago
0 BREEZE-M DEB
1 38642U 08011CR  25354.05295196 -.00000708  00000-0 -21098-1 0  9997
2 38642  48.7483  18.7215 6362014 246.5936  81.4627  3.08632421 17858
Epoch: 2025-12-20T01:16Z
TLE epoch observation values (Epoch: 2025-12-20T01:16:15.049Z)
Latitude
24.14493°
Longitude
-66.09082°
Altitude
18,830.804 km
Speed
3.41 km/s
True Right ascension
02h 47m 25s
True Declination
24° 06' 31"
Sunlit
Object was in daylight at epoch
Visualization orbit readout
Latitude
Unknown
Longitude
Unknown
Altitude
Unknown
Speed
Unknown
Apparent Right ascension
Unknown
Apparent Declination
Unknown
Sunlit
N/A
Visualization observer readout
Local Sidereal Time
23:08:24
Azimuth
Unknown
Elevation
Unknown
Doppler factor
Unknown
Orbital elements
Apogee altitude
26,227.583 km
Perigee altitude
871.53 km
Semi-major axis
19,927.694 km
Eccentricity
0.6362
Inclination
48.7483°
RAAN
18.7215°
Arg. of periapsis
246.5936°
True anomaly
146.31872°
Mean anomaly
81.4627°
Eccentric anomaly
114.60463°
Mean motion
0.77154 °/min
Orbital period
466.6 mins
BSTAR
-0.021098
Loading maneuver chart data...
Computing Atmospheric mass density...
Loading historical data...
Loading historical data...
Loading historical data...
Loading historical data...
Loading historical data...
Loading historical data...
Loading historical data...

Documentation

Showing up to 5 results
|